Time,TemperatureF,DewpointF,PressureIn,WindDirection,WindDirectionDegrees,WindSpeedMPH,WindSpeedGustMPH,Humidity,HourlyPrecipIn,Conditions,Clouds,dailyrainin,SoftwareType,DateUTC
2013-04-14 17:25:00,78.5,65.3,29.62,SW,217,3.0,3.0,64,0.00,,,0.00,Wunderground v.1.15,2013-04-14 22:25:00,
2013-04-14 17:30:00,78.6,64.9,29.62,SSW,206,2.0,4.0,63,0.00,,,0.00,Wunderground v.1.15,2013-04-14 22:30:00,
2013-04-14 17:35:00,78.4,64.8,29.62,SSW,206,1.0,1.0,63,0.00,,,0.00,Wunderground v.1.15,2013-04-14 22:35:00,
2013-04-14 17:40:00,77.9,64.3,29.62,SSW,207,1.0,1.0,63,0.00,,,0.00,Wunderground v.1.15,2013-04-14 22:40:00,
2013-04-14 17:50:00,77.8,63.7,29.63,SSW,207,1.0,2.0,62,0.00,,,0.00,Wunderground v.1.15,2013-04-14 22:50:00,
2013-04-14 18:00:00,77.7,63.6,29.63,SSW,207,2.0,2.0,62,0.00,,,0.00,Wunderground v.1.15,2013-04-14 23:00:00,
2013-04-14 18:10:00,77.6,63.5,29.63,SSW,207,0.0,0.0,62,0.00,,,0.00,Wunderground v.1.15,2013-04-14 23:10:00,
2013-04-14 18:15:00,77.4,62.9,29.62,SSW,206,1.0,3.0,61,0.00,,,0.00,Wunderground v.1.15,2013-04-14 23:15:00,
2013-04-14 18:25:00,77.0,62.5,29.62,SSW,207,1.0,1.0,61,0.00,,,0.00,Wunderground v.1.15,2013-04-14 23:25:00,
2013-04-14 18:30:00,76.8,61.9,29.62,SSW,207,1.0,1.0,60,0.00,,,0.00,Wunderground v.1.15,2013-04-14 23:30:00,
2013-04-14 18:40:00,76.5,61.6,29.62,SSW,207,1.0,2.0,60,0.00,,,0.00,Wunderground v.1.15,2013-04-14 23:40:00,
2013-04-14 18:50:00,76.2,61.3,29.62,SSW,207,0.0,0.0,60,0.00,,,0.00,Wunderground v.1.15,2013-04-14 23:50:00,
2013-04-14 18:55:00,76.1,61.2,29.62,SSW,208,1.0,2.0,60,0.00,,,0.00,Wunderground v.1.15,2013-04-14 23:55:00,
2013-04-14 19:05:00,75.9,61.0,29.62,SSW,208,1.0,1.0,60,0.00,,,0.00,Wunderground v.1.15,2013-04-15 00:05:00,
2013-04-14 19:10:00,75.7,60.4,29.62,SSW,207,1.0,1.0,59,0.00,,,0.00,Wunderground v.1.15,2013-04-15 00:10:00,
2013-04-14 19:20:00,75.0,58.7,29.63,SSW,207,1.0,1.0,57,0.00,,,0.00,Wunderground v.1.15,2013-04-15 00:20:00,
2013-04-14 19:30:00,73.7,56.5,29.63,SSW,209,1.0,1.0,55,0.00,,,0.00,Wunderground v.1.15,2013-04-15 00:30:00,
2013-04-14 19:40:00,72.4,53.8,29.64,SSW,206,1.0,1.0,52,0.00,,,0.00,Wunderground v.1.15,2013-04-15 00:40:00,
2013-04-14 19:45:00,71.8,52.7,29.64,SSW,206,2.0,2.0,51,0.00,,,0.00,Wunderground v.1.15,2013-04-15 00:45:00,
2013-04-14 19:55:00,70.6,50.0,29.64,SSW,202,1.0,6.0,48,0.00,,,0.00,Wunderground v.1.15,2013-04-15 00:55:00,
2013-04-14 20:00:00,70.1,48.9,29.64,SW,216,1.0,2.0,47,0.00,,,0.00,Wunderground v.1.15,2013-04-15 01:00:00,
2013-04-14 20:05:00,69.7,48.6,29.64,SW,217,1.0,2.0,47,0.00,,,0.00,Wunderground v.1.15,2013-04-15 01:05:00,
2013-04-14 20:10:00,69.2,47.5,29.65,SW,217,1.0,1.0,46,0.00,,,0.00,Wunderground v.1.15,2013-04-15 01:10:00,
2013-04-14 20:20:00,68.4,46.2,29.65,SW,215,0.0,0.0,45,0.00,,,0.00,Wunderground v.1.15,2013-04-15 01:20:00,
2013-04-14 20:30:00,67.7,45.0,29.65,SW,215,0.0,0.0,44,0.00,,,0.00,Wunderground v.1.15,2013-04-15 01:30:00,
2013-04-14 20:40:00,67.1,43.8,29.66,SW,215,0.0,0.0,43,0.00,,,0.00,Wunderground v.1.15,2013-04-15 01:40:00,
2013-04-14 20:45:00,66.7,43.5,29.66,SW,215,0.0,0.0,43,0.00,,,0.00,Wunderground v.1.15,2013-04-15 01:45:00,
2013-04-14 20:50:00,66.4,42.6,29.67,SW,215,0.0,0.0,42,0.00,,,0.00,Wunderground v.1.15,2013-04-15 01:50:00,
2013-04-14 21:00:00,65.9,41.5,29.67,SW,215,0.0,0.0,41,0.00,,,0.00,Wunderground v.1.15,2013-04-15 02:00:00,
2013-04-14 21:10:00,65.4,40.4,29.67,SW,215,0.0,0.0,40,0.00,,,0.00,Wunderground v.1.15,2013-04-15 02:10:00,
2013-04-14 21:15:00,65.2,40.3,29.67,SW,215,0.0,0.0,40,0.00,,,0.00,Wunderground v.1.15,2013-04-15 02:15:00,
2013-04-14 21:20:00,65.0,40.1,29.68,SW,215,0.0,0.0,40,0.00,,,0.00,Wunderground v.1.15,2013-04-15 02:20:00,
2013-04-14 21:30:00,64.6,39.1,29.68,SW,215,0.0,0.0,39,0.00,,,0.00,Wunderground v.1.15,2013-04-15 02:30:00,
2013-04-14 21:40:00,64.3,38.1,29.68,SW,215,0.0,0.0,38,0.00,,,0.00,Wunderground v.1.15,2013-04-15 02:40:00,
2013-04-14 21:50:00,64.2,37.4,29.68,SW,215,0.0,0.0,37,0.00,,,0.00,Wunderground v.1.15,2013-04-15 02:50:00,
2013-04-14 22:00:00,64.3,37.5,29.68,SW,215,0.0,0.0,37,0.00,,,0.00,Wunderground v.1.15,2013-04-15 03:00:00,
2013-04-14 22:10:00,64.2,37.4,29.69,SW,215,0.0,0.0,37,0.00,,,0.00,Wunderground v.1.15,2013-04-15 03:10:00,
2013-04-14 22:20:00,64.1,36.6,29.69,SW,215,0.0,0.0,36,0.00,,,0.00,Wunderground v.1.15,2013-04-15 03:20:00,
2013-04-14 22:30:00,64.0,36.5,29.70,SW,215,0.0,0.0,36,0.00,,,0.00,Wunderground v.1.15,2013-04-15 03:30:00,
2013-04-14 22:40:00,64.1,35.9,29.70,SW,215,0.0,0.0,35,0.00,,,0.00,Wunderground v.1.15,2013-04-15 03:40:00,
2013-04-14 22:45:00,64.1,35.9,29.70,SW,215,0.0,0.0,35,0.00,,,0.00,Wunderground v.1.15,2013-04-15 03:45:00,
2013-04-14 22:50:00,64.1,35.9,29.70,SW,215,0.0,0.0,35,0.00,,,0.00,Wunderground v.1.15,2013-04-15 03:50:00,
2013-04-14 22:55:00,64.1,35.9,29.70,SW,215,0.0,0.0,35,0.00,,,0.00,Wunderground v.1.15,2013-04-15 03:55:00,
2013-04-14 23:00:00,64.0,35.8,29.70,SW,215,0.0,0.0,35,0.00,,,0.00,Wunderground v.1.15,2013-04-15 04:00:00,
2013-04-14 23:05:00,63.9,35.7,29.70,SW,215,0.0,0.0,35,0.00,,,0.00,Wunderground v.1.15,2013-04-15 04:05:00,
2013-04-14 23:10:00,64.0,35.8,29.69,SW,215,0.0,0.0,35,0.00,,,0.00,Wunderground v.1.15,2013-04-15 04:10:00,
2013-04-14 23:20:00,63.8,35.6,29.69,SW,215,0.0,0.0,35,0.00,,,0.00,Wunderground v.1.15,2013-04-15 04:20:00,
2013-04-14 23:30:00,63.4,35.2,29.69,SW,215,0.0,0.0,35,0.00,,,0.00,Wunderground v.1.15,2013-04-15 04:30:00,
2013-04-14 23:35:00,63.3,35.2,29.69,SW,215,0.0,0.0,35,0.00,,,0.00,Wunderground v.1.15,2013-04-15 04:35:00,
2013-04-14 23:40:00,63.1,35.0,29.70,SW,215,0.0,0.0,35,0.00,,,0.00,Wunderground v.1.15,2013-04-15 04:40:00,
2013-04-14 23:50:00,62.5,35.2,29.70,SW,215,0.0,0.0,36,0.00,,,0.00,Wunderground v.1.15,2013-04-15 04:50:00,
2013-04-14 23:55:00,62.2,34.9,29.70,SW,215,0.0,0.0,36,0.00,,,0.00,Wunderground v.1.15,2013-04-15 04:55:00,